Terminal Aerodrome Forecast
Issued by NWS

Home | Current Version | Previous Version | Text Only | Print | Product List | Glossary On
Versions: 1 2 3 4 5 6 7 8 9 10 11 12 13 14 15 16 17 18 19 20 21 22 23 24 25 26 27 28 29 30 31 32 33 34 35 36 37 38 39 40 41 42 43 44 45 46 47 48 49 50
000
FTUS46 KPQR 220528 AAA
TAFONP
TAF AMD
KONP 220528Z 2205/2306 33005KT P6SM SCT020
     FM220900 02003KT 2SM -DZ BR OVC020
     FM221300 00000KT 1/2SM FG BKN001
     FM221700 13003KT 4SM BR OVC025
     FM221900 32009KT P6SM SCT025 BKN040=

USA.gov is the U.S. government's official web portal to all federal, state and local government web resources and services.